Weather History for KLFI - December, 2012

Change the Weather History Date:

Thursday, December 13, 2012

  Actual Average Record
Temperature  
Mean Temperature 42 °F -  
Max Temperature 48 °F 53 °F 76 °F (1931)
Min Temperature 35 °F 37 °F 10 °F (1962)
Degree Days  
Heating Degree Days 23    
Moisture  
Dew Point 33 °F    
Average Humidity 67    
Maximum Humidity 89    
Minimum Humidity 51    
Precipitation  
Precipitation 0.03 in - - ()
Sea Level Pressure  
Sea Level Pressure 30.35 in    
Wind  
Wind Speed 15 mph (NNE)    
Max Wind Speed 22 mph    
Max Gust Speed 29 mph    
Visibility 10 miles    
Events      
Averages and records for this station are not official NWS values.
T = Trace of Precipitation, MM = Missing Value Source: NWS Daily Summary

Daily Weather History Graph

Daily Weather History Graph

Search for Another Location

Airport or City:

Trip Planner

Search our weather history database for the weather conditions in past years. The results will help you decide how hot, cold, wet, or windy it might be!

Date:

Astronomy

Dec. 13, 2012 Rise Set
Actual Time 7:10 AM EST 4:49 PM EST
Civil Twilight 6:41 AM EST 5:18 PM EST
Nautical Twilight 6:09 AM EST 5:50 PM EST
Astronomical Twilight 5:37 AM EST 6:22 PM EST
Moon 7:17 AM EST (12/13) 5:28 PM EST (12/13)
Length of Visible Light 10h 36m
Length of Day
9h 38m
New Moon, 0% of the Moon is Illuminated
Dec 13
New Moon
Dec 20
First Quarter
Dec 28
Full
Jan 4
Last Quarter
Jan 11
New

Hourly Weather History & Observations

Time (EST) Temp. Windchill Dew Point Humidity Pressure Visibility Wind Dir Wind Speed Gust Speed Precip Events Conditions
12:55 AM 44.2 °F 35.7 °F 27.1 °F 51% 30.31 in 10.0 mi NE 21.9 mph 28.8 mph N/A   Mostly Cloudy
1:30 AM 44.6 °F 37.8 °F 28.4 °F 53% 30.33 in 10.0 mi NNE 15.0 mph - N/A   Overcast
1:55 AM 43.2 °F 36.2 °F 30.6 °F 61% 30.33 in 10.0 mi NNE 13.8 mph 24.2 mph 0.00 in   Overcast
2:55 AM 41.5 °F 32.9 °F 34.0 °F 75% 30.31 in 10.0 mi NNE 18.4 mph - 0.02 in   Overcast
3:17 AM 41.0 °F 33.1 °F 33.8 °F 76% 30.35 in 10.0 mi NNE 15.0 mph 23.0 mph N/A   Overcast
3:24 AM 41.0 °F 33.1 °F 33.8 °F 76% 30.35 in 10.0 mi NNE 15.0 mph - N/A   Mostly Cloudy
3:55 AM 41.5 °F 34.2 °F 34.3 °F 76% 30.34 in 10.0 mi NNE 13.8 mph 21.9 mph 0.01 in   Overcast
4:07 AM 41.0 °F 33.1 °F 33.8 °F 76% 30.33 in 10.0 mi NNE 15.0 mph 21.9 mph N/A   Mostly Cloudy
4:55 AM 42.3 °F 35.5 °F 34.3 °F 74% 30.34 in 10.0 mi NNE 12.7 mph - 0.00 in   Mostly Cloudy
5:55 AM 42.1 °F 34.9 °F 33.6 °F 72% 30.32 in 10.0 mi NNE 13.8 mph 25.3 mph N/A   Clear
6:01 AM 42.8 °F 35.1 °F 33.8 °F 70% 30.33 in 10.0 mi NNE 16.1 mph 24.2 mph N/A   Clear
6:55 AM 42.4 °F 35.3 °F 34.5 °F 74% 30.35 in 10.0 mi North 13.8 mph 23.0 mph 0.00 in   Scattered Clouds
7:55 AM 42.8 °F 35.1 °F 35.1 °F 74% 30.34 in 10.0 mi NNE 16.1 mph 26.5 mph N/A   Mostly Cloudy
8:55 AM 44.2 °F 37.0 °F 36.5 °F 74% 30.35 in 10.0 mi NNE 16.1 mph - N/A   Overcast
9:55 AM 45.3 °F 38.1 °F 36.1 °F 70% 30.37 in 10.0 mi NNE 17.3 mph 24.2 mph N/A   Overcast
10:55 AM 46.8 °F - 35.2 °F 64% 30.37 in 10.0 mi North 17.3 mph 26.5 mph N/A   Clear
11:55 AM 47.8 °F - 34.7 °F 60% 30.37 in 10.0 mi NNE 19.6 mph 25.3 mph N/A   Clear
12:55 PM 48.7 °F - 34.3 °F 58% 30.37 in 10.0 mi North 12.7 mph 24.2 mph N/A   Clear
1:55 PM 48.9 °F - 32.5 °F 53% 30.36 in 10.0 mi North 15.0 mph 21.9 mph N/A   Clear
2:55 PM 48.7 °F - 32.2 °F 53% 30.36 in 10.0 mi North 10.4 mph 20.7 mph N/A   Clear
3:55 PM 47.7 °F - 31.1 °F 53% 30.37 in 10.0 mi North 9.2 mph - N/A   Clear
4:55 PM 45.1 °F 40.8 °F 31.5 °F 59% 30.35 in 10.0 mi North 8.1 mph - N/A   Clear
5:55 PM 44.1 °F 39.5 °F 30.9 °F 60% 30.36 in 10.0 mi NNE 8.1 mph - N/A   Clear
6:55 PM 43.7 °F 40.3 °F 30.7 °F 60% 30.37 in 10.0 mi North 5.8 mph - N/A   Clear
7:55 PM 43.3 °F 39.2 °F 30.7 °F 61% 30.37 in 10.0 mi North 6.9 mph - N/A   Clear
8:55 PM 42.8 °F 38.0 °F 33.4 °F 70% 30.36 in 10.0 mi NNE 8.1 mph - N/A   Clear
9:55 PM 41.7 °F 38.0 °F 34.7 °F 76% 30.36 in 10.0 mi North 5.8 mph - N/A   Clear
10:55 PM 36.3 °F - 31.1 °F 81% 30.37 in 10.0 mi Calm Calm - N/A   Clear
11:55 PM 35.6 °F 32.8 °F 32.5 °F 89% 30.35 in 10.0 mi NNW 3.5 mph - N/A   Clear